Find Beidou DSW 3

NORAD ID: 27813 Int'l Des: 2003-021 Owner: CNSA Country: CN Constellation: BeiDou operational
HEOCIRCULAR

Live Position

Loading 3D Globe...

About Beidou DSW 3

Description loading...

Upcoming Passes

Passes for default location (London). Set your location on the main map for personalized predictions.

Altitude History

Loading altitude history...

Two-Line Element Set

1 27813U 03021A 26105.01653590 -.00000017 00000-0 00000+0 0 9998
2 27813 11.2581 41.7545 0019304 305.3701 232.5687 0.99778451 83670
Epoch: Apr 15, 2026 • Age: 37 hours

Current Status

Altitude 35893.5 km
Velocity 3.07 km/s
Sub-Earth Point 2.62°N, 7.76°E
Launch Date May 24, 2003
Age 22.8 years
Type navigation

Technical Details

Classification Payload
Mass 2325.00 kg
Dry Mass 1300.00 kg
Total Mass 2325.00 kg
Length 3.00 m
Diameter 1.70 m
Span 18.00 m
Shape Box + 2 Pan
Manufacturer CAST
Bus Type DFH-3
Phase Status In Orbit
Owner/State CNSA/CN

Most Searched